Location: Jacksonville
(30.3320°N, 81.6560°W)
Time: 10:37:26
(UTC-05:00)

ISS - Visible Passes

Search period start: 02 December 2020 00:00
Search period end: 12 December 2020 00:00
Orbit: 418 x 420 km, 51.6° (Epoch: 02 December)

Date Brightness Start Highest point End Pass type
(mag) Time Alt. Az. Time Alt. Az. Time Alt. Az.
06 Dec -1.7 18:35:46 10° N 18:36:59 15° NNE 18:36:59 15° NNE visible
07 Dec -1.5 19:24:01 10° NW 19:25:15 21° NW 19:25:15 21° NW visible
08 Dec -3.7 18:36:29 10° NW 18:39:46 52° NE 18:40:53 34° E visible
09 Dec -2.7 17:49:08 10° NNW 17:52:05 28° NE 17:55:01 10° ESE visible
09 Dec -1.0 19:26:18 10° W 19:28:42 18° SW 19:30:16 14° SSW visible
10 Dec -2.1 18:38:05 10° WNW 18:41:11 35° SW 18:44:17 10° SSE visible
11 Dec -3.5 17:50:15 10° NW 17:53:36 76° SW 17:56:56 10° SE visible
